This is the latest recevied weather packets stored in our database for station/object WB8ZGM-13. If no packets are shown the sender has not sent any weather packets the latest 1 day(s).
| Time | Temp. | Humidity | Pressure | Rain* | Wind** | Luminosity | Snow |
|---|---|---|---|---|---|---|---|
| 1778051483 | 21.67° C | 77% | 989.2 hPa | 0 mm | 0.89 m/s, 170° | - | - |
| 1778050553 | 21.67° C | 77% | 989 hPa | 0 mm | 0.45 m/s, 242° | - | - |
| 1778049653 | 21.67° C | 76% | 989.3 hPa | 0 mm | 0.89 m/s, 122° | - | - |
| 1778048753 | 21.67° C | 75% | 989.6 hPa | 0 mm | 2.68 m/s, 177° | - | - |
| 1778047823 | 21.67° C | 75% | 989.4 hPa | 0 mm | 0.45 m/s, 141° | - | - |
| 1778046893 | 21.67° C | 74% | 989.7 hPa | 0 mm | 1.34 m/s, 27° | - | - |
| 1778045963 | 21.67° C | 73% | 990.2 hPa | 0 mm | 0.89 m/s, 202° | - | - |
| 1778045033 | 21.67° C | 73% | 990.3 hPa | 0 mm | 1.34 m/s, 303° | - | - |
| 1778044103 | 21.67° C | 73% | 990.3 hPa | 0 mm | 0.89 m/s, 169° | - | - |
| 1778043173 | 21.67° C | 73% | 990.3 hPa | 0 mm | 2.24 m/s, 201° | - | - |
| 1778042243 | 21.67° C | 73% | 990.5 hPa | 0 mm | 1.34 m/s, 188° | - | - |
| 1778041313 | 21.67° C | 73% | 990.3 hPa | 0 mm | 2.68 m/s, 135° | - | - |
| 1778040383 | 21.67° C | 72% | 990.5 hPa | 0 mm | 2.24 m/s, 208° | - | - |
| 1778039453 | 21.67° C | 72% | 990.7 hPa | 0 mm | 2.68 m/s, 112° | - | - |
| 1778038523 | 21.67° C | 72% | 990.7 hPa | 0 mm | 2.24 m/s, 94° | - | - |
| 1778037623 | 21.67° C | 72% | 990.7 hPa | 0 mm | 2.24 m/s, 125° | - | - |
| 1778036723 | 21.67° C | 72% | 990.9 hPa | 0 mm | 3.13 m/s, 306° | - | - |
| 1778035793 | 21.67° C | 72% | 990.5 hPa | 0 mm | 3.13 m/s, 192° | - | - |
| 1778034893 | 21.67° C | 71% | 990.7 hPa | 0 mm | 2.24 m/s, 211° | - | - |
| 1778033993 | 21.67° C | 71% | 990.8 hPa | 0 mm | 3.13 m/s, 246° | - | - |
| 1778033063 | 21.67° C | 70% | 990.7 hPa | 0 mm | 2.68 m/s, 181° | - | - |
| 1778032132 | 21.67° C | 69% | 990.6 hPa | 0 mm | 3.13 m/s, 101° | - | - |
| 1778031232 | 21.67° C | 69% | 990.9 hPa | 0 mm | 2.68 m/s, 213° | - | - |
| 1778030302 | 21.67° C | 68% | 990.8 hPa | 0 mm | 1.34 m/s, 31° | - | - |
| 1778029372 | 21.67° C | 67% | 990.7 hPa | 0 mm | 2.24 m/s, 205° | - | - |
* Rain latest hour (hover to see other rain measurements)
** Current wind speed in m/s (hover to see current wind gust speed)